Location: Bailen
(14.1842°N, 120.7958°E)
Time: 13:01:43
(UTC+00:00)

Lacrosse 4 Rocket - Pass Details

Date: 23 April 2026
Orbit: 506 x 567 km, 68.0° (Epoch: 12 May)

Event Time Altitude Azimuth Distance (km) Brightness Sun altitude
Exits shadow 19:32:07 13° 121° (ESE) 1,542 3.9 -29.9°
Maximum altitude 19:32:58 14° 106° (ESE) 1,501 4.1 -29.7°
Drops below altitude 10° 19:34:55 10° 75° (ENE) 1,723 4.8 -29.3°
Sets 19:37:59 0° 49° (NE) 2,619 5.9 -28.6°
